Time,TemperatureF,DewpointF,PressureIn,WindDirection,WindDirectionDegrees,WindSpeedMPH,WindSpeedGustMPH,Humidity,HourlyPrecipIn,Conditions,Clouds,dailyrainin,SoftwareType,DateUTC
2013-02-28 00:13:00,40.3,26.3,30.12,NW,315,4.2,-999.0,57,-99.99,,,0.00,Acu-Link.com,2013-02-28 06:13:00,
2013-02-28 00:28:00,39.9,26.3,30.11,NW,315,2.7,-999.0,58,-99.99,,,0.00,Acu-Link.com,2013-02-28 06:28:00,
2013-02-28 00:43:00,39.6,27.3,30.12,NW,315,2.7,-999.0,61,-99.99,,,0.00,Acu-Link.com,2013-02-28 06:43:00,
2013-02-28 00:58:00,39.0,27.1,30.12,NW,315,3.2,-999.0,62,-99.99,,,0.00,Acu-Link.com,2013-02-28 06:58:00,
2013-02-28 01:13:00,38.1,26.6,30.13,NW,315,2.7,-999.0,63,-99.99,,,0.00,Acu-Link.com,2013-02-28 07:13:00,
2013-02-28 01:28:00,38.7,27.2,30.13,NNW,337,6.3,-999.0,63,-99.99,,,0.00,Acu-Link.com,2013-02-28 07:28:00,
2013-02-28 01:43:00,38.1,26.6,30.14,NW,315,4.7,-999.0,63,-99.99,,,0.00,Acu-Link.com,2013-02-28 07:43:00,
2013-02-28 01:58:00,37.9,26.8,30.14,WNW,292,5.3,-999.0,64,-99.99,,,0.00,Acu-Link.com,2013-02-28 07:58:00,
2013-02-28 02:13:00,37.8,26.7,30.13,NW,315,4.2,-999.0,64,-99.99,,,0.00,Acu-Link.com,2013-02-28 08:13:00,
2013-02-28 02:29:00,37.6,26.9,30.13,NNW,337,4.7,-999.0,65,-99.99,,,0.00,Acu-Link.com,2013-02-28 08:29:00,
2013-02-28 02:44:00,37.2,26.5,30.14,NNW,337,4.2,-999.0,65,-99.99,,,0.00,Acu-Link.com,2013-02-28 08:44:00,
2013-02-28 02:59:00,36.9,26.3,30.14,NNW,337,4.7,-999.0,65,-99.99,,,0.00,Acu-Link.com,2013-02-28 08:59:00,
2013-02-28 03:19:00,36.7,26.1,30.13,NW,315,4.2,-999.0,65,-99.99,,,0.00,Acu-Link.com,2013-02-28 09:19:00,
2013-02-28 03:34:00,35.2,25.7,30.13,NW,315,5.8,-999.0,68,-99.99,,,0.00,Acu-Link.com,2013-02-28 09:34:00,
2013-02-28 03:49:00,35.1,26.0,30.13,NNW,337,4.2,-999.0,69,-99.99,,,0.00,Acu-Link.com,2013-02-28 09:49:00,
2013-02-28 04:04:00,34.5,25.7,30.12,NW,315,4.2,-999.0,70,-99.99,,,0.00,Acu-Link.com,2013-02-28 10:04:00,
2013-02-28 04:20:00,34.3,25.6,30.12,NW,315,3.7,-999.0,70,-99.99,,,0.00,Acu-Link.com,2013-02-28 10:20:00,
2013-02-28 04:35:00,34.0,25.3,30.13,NW,315,2.7,-999.0,70,-99.99,,,0.00,Acu-Link.com,2013-02-28 10:35:00,
2013-02-28 04:50:00,33.6,24.9,30.13,NW,315,1.7,-999.0,70,-99.99,,,0.00,Acu-Link.com,2013-02-28 10:50:00,
2013-02-28 05:05:00,33.1,24.7,30.13,NW,315,2.7,-999.0,71,-99.99,,,0.00,Acu-Link.com,2013-02-28 11:05:00,
2013-02-28 05:20:00,32.5,24.8,30.13,NW,315,1.7,-999.0,73,-99.99,,,0.00,Acu-Link.com,2013-02-28 11:20:00,
2013-02-28 05:35:00,32.2,25.2,30.14,NW,315,2.7,-999.0,75,-99.99,,,0.00,Acu-Link.com,2013-02-28 11:35:00,
2013-02-28 05:50:00,32.4,25.4,30.14,NW,315,3.7,-999.0,75,-99.99,,,0.00,Acu-Link.com,2013-02-28 11:50:00,
2013-02-28 06:05:00,32.4,25.4,30.15,NW,315,1.1,-999.0,75,-99.99,,,0.00,Acu-Link.com,2013-02-28 12:05:00,
2013-02-28 06:20:00,31.8,25.4,30.16,NW,315,2.2,-999.0,77,-99.99,,,0.00,Acu-Link.com,2013-02-28 12:20:00,
2013-02-28 06:36:00,31.6,25.5,30.16,NW,315,2.2,-999.0,78,-99.99,,,0.00,Acu-Link.com,2013-02-28 12:36:00,
2013-02-28 06:51:00,31.6,25.5,30.16,NW,315,0.0,-999.0,78,-99.99,,,0.00,Acu-Link.com,2013-02-28 12:51:00,
2013-02-28 07:06:00,31.8,25.7,30.17,NW,315,1.1,-999.0,78,-99.99,,,0.00,Acu-Link.com,2013-02-28 13:06:00,
2013-02-28 07:21:00,31.6,25.2,30.17,NW,315,0.0,-999.0,77,-99.99,,,0.00,Acu-Link.com,2013-02-28 13:21:00,
2013-02-28 07:36:00,33.4,27.3,30.18,NW,315,2.2,-999.0,78,-99.99,,,0.00,Acu-Link.com,2013-02-28 13:36:00,
2013-02-28 07:51:00,36.5,27.7,30.19,NW,315,4.2,-999.0,70,-99.99,,,0.00,Acu-Link.com,2013-02-28 13:51:00,
2013-02-28 08:07:00,37.8,27.5,30.19,NW,315,3.2,-999.0,66,-99.99,,,0.00,Acu-Link.com,2013-02-28 14:07:00,
2013-02-28 08:22:00,37.8,27.8,30.20,WNW,292,2.7,-999.0,67,-99.99,,,0.00,Acu-Link.com,2013-02-28 14:22:00,
2013-02-28 08:37:00,39.4,27.9,30.20,NW,315,4.2,-999.0,63,-99.99,,,0.00,Acu-Link.com,2013-02-28 14:37:00,
2013-02-28 08:52:00,40.5,28.1,30.21,NW,315,6.8,-999.0,61,-99.99,,,0.00,Acu-Link.com,2013-02-28 14:52:00,
2013-02-28 09:07:00,42.1,28.0,30.21,NW,315,8.3,-999.0,57,-99.99,,,0.00,Acu-Link.com,2013-02-28 15:07:00,
2013-02-28 09:22:00,43.9,27.9,30.21,NNW,337,5.3,-999.0,53,-99.99,,,0.00,Acu-Link.com,2013-02-28 15:22:00,
2013-02-28 09:37:00,46.4,29.7,30.21,NNE,22,2.7,-999.0,52,-99.99,,,0.00,Acu-Link.com,2013-02-28 15:37:00,
2013-02-28 09:52:00,47.3,28.1,30.20,NW,315,8.9,-999.0,47,-99.99,,,0.00,Acu-Link.com,2013-02-28 15:52:00,
2013-02-28 10:07:00,48.7,28.9,30.20,NE,45,7.3,-999.0,46,-99.99,,,0.00,Acu-Link.com,2013-02-28 16:07:00,
2013-02-28 10:23:00,50.2,27.4,30.20,NNW,337,13.0,-999.0,41,-99.99,,,0.00,Acu-Link.com,2013-02-28 16:23:00,
2013-02-28 10:38:00,50.7,27.3,30.19,NNW,337,8.3,-999.0,40,-99.99,,,0.00,Acu-Link.com,2013-02-28 16:38:00,
2013-02-28 10:53:00,51.4,27.9,30.20,NW,315,6.3,-999.0,40,-99.99,,,0.00,Acu-Link.com,2013-02-28 16:53:00,
2013-02-28 11:08:00,53.4,27.8,30.19,NNE,22,10.4,-999.0,37,-99.99,,,0.00,Acu-Link.com,2013-02-28 17:08:00,
2013-02-28 11:23:00,52.5,27.6,30.18,NNE,22,16.6,-999.0,38,-99.99,,,0.00,Acu-Link.com,2013-02-28 17:23:00,
2013-02-28 11:38:00,54.9,28.5,30.18,NNW,337,8.3,-999.0,36,-99.99,,,0.00,Acu-Link.com,2013-02-28 17:38:00,
2013-02-28 11:54:00,54.5,28.1,30.17,NNW,337,8.3,-999.0,36,-99.99,,,0.00,Acu-Link.com,2013-02-28 17:54:00,
2013-02-28 12:09:00,55.8,27.9,30.17,NNW,337,5.8,-999.0,34,-99.99,,,0.00,Acu-Link.com,2013-02-28 18:09:00,
2013-02-28 12:24:00,56.7,27.2,30.16,NNW,337,10.9,-999.0,32,-99.99,,,0.00,Acu-Link.com,2013-02-28 18:24:00,
2013-02-28 12:39:00,56.8,27.3,30.15,NNE,22,8.9,-999.0,32,-99.99,,,0.00,Acu-Link.com,2013-02-28 18:39:00,
2013-02-28 12:54:00,57.6,28.0,30.15,NE,45,6.8,-999.0,32,-99.99,,,0.00,Acu-Link.com,2013-02-28 18:54:00,
2013-02-28 13:09:00,57.4,27.0,30.13,NNW,337,14.5,-999.0,31,-99.99,,,0.00,Acu-Link.com,2013-02-28 19:09:00,
2013-02-28 13:24:00,57.7,25.7,30.12,WNW,292,8.9,-999.0,29,-99.99,,,0.00,Acu-Link.com,2013-02-28 19:24:00,
2013-02-28 13:39:00,58.8,24.9,30.11,NNE,22,5.8,-999.0,27,-99.99,,,0.00,Acu-Link.com,2013-02-28 19:39:00,
2013-02-28 13:54:00,59.5,23.7,30.11,NNE,22,12.5,-999.0,25,-99.99,,,0.00,Acu-Link.com,2013-02-28 19:54:00,
2013-02-28 14:10:00,59.5,24.6,30.10,NW,315,9.4,-999.0,26,-99.99,,,0.00,Acu-Link.com,2013-02-28 20:10:00,
2013-02-28 14:25:00,59.4,23.6,30.09,NNE,22,8.9,-999.0,25,-99.99,,,0.00,Acu-Link.com,2013-02-28 20:25:00,
2013-02-28 14:40:00,59.4,24.5,30.09,NNE,22,10.9,-999.0,26,-99.99,,,0.00,Acu-Link.com,2013-02-28 20:40:00,
2013-02-28 14:55:00,60.1,24.2,30.08,NNW,337,5.3,-999.0,25,-99.99,,,0.00,Acu-Link.com,2013-02-28 20:55:00,
2013-02-28 15:10:00,60.4,25.4,30.08,NE,45,8.3,-999.0,26,-99.99,,,0.00,Acu-Link.com,2013-02-28 21:10:00,
2013-02-28 15:25:00,60.8,25.7,30.08,WNW,292,5.3,-999.0,26,-99.99,,,0.00,Acu-Link.com,2013-02-28 21:25:00,
2013-02-28 15:41:00,60.1,23.2,30.08,NNE,22,11.9,-999.0,24,-99.99,,,0.00,Acu-Link.com,2013-02-28 21:41:00,
2013-02-28 15:56:00,60.8,21.7,30.08,NNW,337,7.8,-999.0,22,-99.99,,,0.00,Acu-Link.com,2013-02-28 21:56:00,
2013-02-28 16:11:00,60.6,23.6,30.08,NNW,337,10.9,-999.0,24,-99.99,,,0.00,Acu-Link.com,2013-02-28 22:11:00,
2013-02-28 16:26:00,60.1,22.2,30.07,NNW,337,6.3,-999.0,23,-99.99,,,0.00,Acu-Link.com,2013-02-28 22:26:00,
2013-02-28 16:41:00,60.1,21.1,30.07,NW,315,7.8,-999.0,22,-99.99,,,0.00,Acu-Link.com,2013-02-28 22:41:00,
2013-02-28 16:56:00,59.4,21.6,30.07,NNW,337,11.4,-999.0,23,-99.99,,,0.00,Acu-Link.com,2013-02-28 22:56:00,
2013-02-28 17:12:00,59.7,22.9,30.07,NNW,337,5.3,-999.0,24,-99.99,,,0.00,Acu-Link.com,2013-02-28 23:12:00,
2013-02-28 17:27:00,59.7,20.8,30.07,NW,315,9.9,-999.0,22,-99.99,,,0.00,Acu-Link.com,2013-02-28 23:27:00,
2013-02-28 17:42:00,59.0,20.2,30.07,NNW,337,6.8,-999.0,22,-99.99,,,0.00,Acu-Link.com,2013-02-28 23:42:00,
2013-02-28 17:57:00,58.3,21.7,30.07,NNW,337,6.8,-999.0,24,-99.99,,,0.00,Acu-Link.com,2013-02-28 23:57:00,
2013-02-28 18:12:00,56.8,22.3,30.07,NNW,337,3.2,-999.0,26,-99.99,,,0.00,Acu-Link.com,2013-03-01 00:12:00,
2013-02-28 18:27:00,54.7,23.9,30.08,NNW,337,2.7,-999.0,30,-99.99,,,0.00,Acu-Link.com,2013-03-01 00:27:00,
2013-02-28 18:42:00,52.7,24.4,30.08,NNW,337,2.7,-999.0,33,-99.99,,,0.00,Acu-Link.com,2013-03-01 00:42:00,
2013-02-28 18:57:00,50.7,24.7,30.08,NNW,337,2.7,-999.0,36,-99.99,,,0.00,Acu-Link.com,2013-03-01 00:57:00,
2013-02-28 19:13:00,49.3,24.8,30.08,NNW,337,1.7,-999.0,38,-99.99,,,0.00,Acu-Link.com,2013-03-01 01:13:00,
2013-02-28 19:28:00,48.2,25.0,30.08,NNW,337,1.7,-999.0,40,-99.99,,,0.00,Acu-Link.com,2013-03-01 01:28:00,
2013-02-28 19:43:00,46.6,25.9,30.09,NNW,337,1.7,-999.0,44,-99.99,,,0.00,Acu-Link.com,2013-03-01 01:43:00,
2013-02-28 19:58:00,45.3,25.2,30.10,NNW,337,1.7,-999.0,45,-99.99,,,0.00,Acu-Link.com,2013-03-01 01:58:00,
2013-02-28 20:13:00,44.4,24.9,30.10,NNW,337,2.7,-999.0,46,-99.99,,,0.00,Acu-Link.com,2013-03-01 02:13:00,
2013-02-28 20:28:00,44.1,24.7,30.10,NNW,337,2.2,-999.0,46,-99.99,,,0.00,Acu-Link.com,2013-03-01 02:28:00,
2013-02-28 20:43:00,43.3,24.4,30.10,NNW,337,2.7,-999.0,47,-99.99,,,0.00,Acu-Link.com,2013-03-01 02:43:00,
2013-02-28 20:58:00,41.7,25.4,30.10,NNW,337,0.0,-999.0,52,-99.99,,,0.00,Acu-Link.com,2013-03-01 02:58:00,
2013-02-28 21:13:00,39.2,25.7,30.11,NNW,337,0.0,-999.0,58,-99.99,,,0.00,Acu-Link.com,2013-03-01 03:13:00,
2013-02-28 21:29:00,38.1,25.1,30.11,NNW,337,0.0,-999.0,59,-99.99,,,0.00,Acu-Link.com,2013-03-01 03:29:00,
2013-02-28 21:44:00,36.9,25.1,30.11,NNW,337,0.0,-999.0,62,-99.99,,,0.00,Acu-Link.com,2013-03-01 03:44:00,
2013-02-28 21:59:00,36.0,25.0,30.11,NNW,337,3.2,-999.0,64,-99.99,,,0.00,Acu-Link.com,2013-03-01 03:59:00,
2013-02-28 22:14:00,37.0,24.4,30.11,NNW,337,1.1,-999.0,60,-99.99,,,0.00,Acu-Link.com,2013-03-01 04:14:00,
2013-02-28 22:29:00,36.0,24.3,30.11,NNW,337,2.2,-999.0,62,-99.99,,,0.00,Acu-Link.com,2013-03-01 04:29:00,
2013-02-28 22:44:00,35.2,24.3,30.11,NNW,337,2.2,-999.0,64,-99.99,,,0.00,Acu-Link.com,2013-03-01 04:44:00,
2013-02-28 22:59:00,35.4,24.5,30.11,NNW,337,2.2,-999.0,64,-99.99,,,0.00,Acu-Link.com,2013-03-01 04:59:00,
2013-02-28 23:15:00,34.7,23.8,30.12,NNW,337,1.7,-999.0,64,-99.99,,,0.00,Acu-Link.com,2013-03-01 05:15:00,
2013-02-28 23:30:00,33.4,24.0,30.11,NNW,337,0.0,-999.0,68,-99.99,,,0.00,Acu-Link.com,2013-03-01 05:30:00,
2013-02-28 23:45:00,33.3,24.2,30.11,NNW,337,0.0,-999.0,69,-99.99,,,0.00,Acu-Link.com,2013-03-01 05:45:00,